SCP
0 0 0 0 0 0 0 0 0 0 0 0 0 0 0 0 0 0 0 0 0 0
0 0 0 0 0 0 0 0 0 0 0 0 0 0 0 0 0 0 0 0 0 0
0 0 0 0 0 0 0 0 0 0 0 0 0 0 0 0 0 0 0 0 0 0
0 0 0 0 0 0 0 0 0 0 0 0 0 0 0 0 0 0 0 0 0 0
0 0 0 0 0 0 0 0 0 0 0 0 0 0 0 0 0 0 0 0 0 0
0 0 0 0 0 0 0 0 0 0 0 0 0 0 0 0 0 0 0 0 0 0
0 0 0 0 0 0 0 0 0 0 0 0 0 0 0 0 0 0 0 0 0 0
0 0 0 0 0 0 0 0 0 0 0 0 0 0 0 0 0 0 0 0 0 0
0 0 0 0 0 0 0 0 0 0 0 0 0 0 0 0 0 0 0 0 0 0
0 0 0 0 0 0 0 0 0 0 0 0 0 0 0 0 0 0 0 0 0 0
0 0 0 0 0 0 0 0 0 0 0 0 0 0 0 0 0 0 0 0 0 0
0 0 0 0 0 0 0 0 0 0 0 0 0 0 0 0 0 0 0 0 0 0
0 0 0 0 0 0 0 0 0 0 0 0 0 0 0 -0 -0 -0 -0 -0 -0 -0
0 0 0 0 0 0 0 0 0 0 0 0 -0 -0 -0 -0 -0 -0 -0 -0 -0 -0
Wind_Speed_500mb
19 20 22 22 23 23 26 30 31 38 37 35 37 38 37 41 47 51 51 52 54 59
10 12 15 19 22 24 26 30 34 39 40 42 40 39 36 42 48 46 52 51 55 64
22 17 12 8 5 5 8 12 18 23 30 36 41 41 42 48 48 51 60 64 58 56
20 17 12 9 5 4 7 12 18 22 26 30 31 34 39 45 48 52 55 62 65 67
8 6 6 7 10 13 17 20 25 28 30 32 35 37 41 45 47 51 59 64 67 75
12 15 18 22 26 30 34 37 40 41 42 43 43 43 42 45 48 52 59 61 67 75
25 28 33 38 43 48 54 58 60 62 62 59 56 50 50 50 52 57 59 62 66 69
34 39 42 47 51 57 63 67 70 70 67 65 64 60 56 55 58 63 68 69 71 76
40 44 47 51 57 62 64 64 65 65 65 62 60 59 60 62 64 67 73 80 80 81
42 42 43 45 48 51 53 55 57 59 62 64 64 63 62 60 65 71 75 80 84 89
40 45 48 47 49 51 55 58 62 62 63 67 68 68 69 72 75 78 80 83 85 90
45 48 52 55 58 60 62 62 64 66 69 70 69 67 67 70 75 80 85 88 90 94
48 52 56 58 61 64 68 72 73 74 72 73 74 70 70 70 72 83 90 94 95 94
51 56 61 63 66 71 74 76 77 81 81 81 81 83 80 76 70 72 83 90 98 98
Wind_Direction_500mb
225 241 255 254 259 265 277 280 281 280 280 275 273 275 285 291 291 291 284 286 287 291
191 221 237 248 256 262 268 269 275 275 278 279 277 274 278 276 270 266 279 285 294 293
111 115 122 139 178 222 254 280 288 290 288 285 283 280 272 269 270 273 276 277 273 276
110 112 111 103 83 21 336 311 302 298 297 295 294 286 281 279 277 276 275 277 277 276
69 67 52 28 4 351 340 334 324 315 306 297 293 288 284 284 280 282 281 278 279 282
320 318 320 321 321 321 319 317 314 312 308 306 302 296 291 287 283 277 273 274 276 278
313 314 313 314 314 314 315 314 312 309 307 304 301 298 295 291 286 281 277 275 272 271
315 313 310 310 311 311 311 310 308 306 303 302 301 300 294 288 285 284 282 279 278 276
312 314 314 313 314 314 312 310 308 307 305 304 303 303 302 298 290 283 281 281 280 279
323 324 326 326 323 321 319 319 318 318 318 319 319 319 315 310 302 295 290 287 285 283
338 340 339 338 336 331 330 329 327 326 325 325 327 328 325 321 316 309 303 300 296 292
343 341 339 339 337 336 332 331 330 329 328 328 329 332 328 322 317 312 308 306 304 301
344 340 338 337 335 333 331 329 329 327 327 328 329 333 332 331 323 315 314 310 306 303
339 335 333 332 331 329 326 324 324 322 324 327 331 332 332 331 325 318 311 307 306 303
Wind_Speed_850mb
19 20 22 22 23 23 26 30 31 38 37 35 37 38 37 41 47 51 51 52 54 59
10 12 15 19 22 24 26 30 34 39 40 42 40 39 36 42 48 46 52 51 55 64
22 17 12 8 5 5 8 12 18 23 30 36 41 41 42 48 48 51 60 64 58 56
20 17 12 9 5 4 7 12 18 22 26 30 31 34 39 45 48 52 55 62 65 67
8 6 6 7 10 13 17 20 25 28 30 32 35 37 41 45 47 51 59 64 67 75
12 15 18 22 26 30 34 37 40 41 42 43 43 43 42 45 48 52 59 61 67 75
25 28 33 38 43 48 54 58 60 62 62 59 56 50 50 50 52 57 59 62 66 69
34 39 42 47 51 57 63 67 70 70 67 65 64 60 56 55 58 63 68 69 71 76
40 44 47 51 57 62 64 64 65 65 65 62 60 59 60 62 64 67 73 80 80 81
42 42 43 45 48 51 53 55 57 59 62 64 64 63 62 60 65 71 75 80 84 89
40 45 48 47 49 51 55 58 62 62 63 67 68 68 69 72 75 78 80 83 85 90
45 48 52 55 58 60 62 62 64 66 69 70 69 67 67 70 75 80 85 88 90 94
48 52 56 58 61 64 68 72 73 74 72 73 74 70 70 70 72 83 90 94 95 94
51 56 61 63 66 71 74 76 77 81 81 81 81 83 80 76 70 72 83 90 98 98
Wind_Direction_850mb
225 241 255 254 259 265 277 280 281 280 280 275 273 275 285 291 291 291 284 286 287 291
191 221 237 248 256 262 268 269 275 275 278 279 277 274 278 276 270 266 279 285 294 293
111 115 122 139 178 222 254 280 288 290 288 285 283 280 272 269 270 273 276 277 273 276
110 112 111 103 83 21 336 311 302 298 297 295 294 286 281 279 277 276 275 277 277 276
69 67 52 28 4 351 340 334 324 315 306 297 293 288 284 284 280 282 281 278 279 282
320 318 320 321 321 321 319 317 314 312 308 306 302 296 291 287 283 277 273 274 276 278
313 314 313 314 314 314 315 314 312 309 307 304 301 298 295 291 286 281 277 275 272 271
315 313 310 310 311 311 311 310 308 306 303 302 301 300 294 288 285 284 282 279 278 276
312 314 314 313 314 314 312 310 308 307 305 304 303 303 302 298 290 283 281 281 280 279
323 324 326 326 323 321 319 319 318 318 318 319 319 319 315 310 302 295 290 287 285 283
338 340 339 338 336 331 330 329 327 326 325 325 327 328 325 321 316 309 303 300 296 292
343 341 339 339 337 336 332 331 330 329 328 328 329 332 328 322 317 312 308 306 304 301
344 340 338 337 335 333 331 329 329 327 327 328 329 333 332 331 323 315 314 310 306 303
339 335 333 332 331 329 326 324 324 322 324 327 331 332 332 331 325 318 311 307 306 303